TJS-5

Last updated on Oct. 29, 2020, 5:52 a.m. UTC

1 44978U 20002A   20302.79325021  .00000041  00000-0  00000+0 0  9996
2 44978   0.3354 281.4588 0001987 305.0917 275.1354  1.00274496  3064
UTC
Height (km)
Latitude
Longitude
Inclination
Orbital Period
UTC large
Height (km)
Speed (km/s)
/
Latitude / Longitude
Inclination (degrees)
Orbital Period (minutes)
Azimuth
Elevation
Range (km)
Doppler Factor
iOS Compass Heading
iOS Angle

Next 30 passes for location: Hong Kong

Rise time Rise Azimuth (degrees) Set time Set Azimuth (degrees) Duration Max altitude (degrees)

No matching passes for this satellites